Location: Berlin
(38.3226°N, 75.2177°W)
Time: 14:52:04
(UTC+00:00)

YAOGAN 1 - Pass Details

Date: 26 October 2020
Orbit: 618 x 620 km, 97.9° (Epoch: 26 November)

Event Time Altitude Azimuth Distance (km) Brightness Sun altitude
Rises 00:08:02 0° 180° (S) 2,881 6.0 -24.0°
Reaches altitude 10° 00:10:16 10° 187° (S) 1,980 5.2 -24.4°
Maximum altitude 00:14:25 46° 261° (W) 832 3.5 -25.2°
Drops below altitude 10° 00:18:36 10° 335° (NNW) 1,994 5.5 -26.0°
Sets 00:20:52 0° 341° (NNW) 2,904 6.3 -26.5°
